Hourly Data Report for October 07, 2013

All times are specified in Local Standard Time (LST). Add 1 hour to adjust for Daylight Saving Time where and when it is observed.

EMERSON AUTO
MANITOBA

49°00'00.000" N
97°14'15.000" W
242.00 m
5020881
71560
WEX

Download Data

Hourly Data (October 2013)
Hourly Data Report for October 7, 2013
Temp Definition
°C
Dew Point Temp Definition
°C
Rel Hum Definition
%
Wind Dir Definition
10's deg

Wind Spd Definition
km/h
Visibility Definition
km
Stn Press Definition
kPa
Hmdx Definition


Wind Chill Definition


Weather Definition


TIME
00:00 3.2 1.0 85 34 11   98.21     LegendNANA
01:00 5.4 2.0 79 34 13   98.24     LegendNANA
02:00 3.5 1.5 87 33 7   98.27     LegendNANA
03:00 1.7 0.2 90 28 4   98.27     LegendNANA
04:00 -0.5 -1.5 93 28 6   98.30   -3 LegendNANA
05:00 0.3 -0.3 96 28 6   98.37     LegendNANA
06:00 0.1 -0.6 95 28 6   98.40     LegendNANA
07:00 -0.9 -1.4 96 28 6   98.43   -3 LegendNANA
08:00 2.9 1.6 91 32 2   98.45     LegendNANA
09:00 7.8 4.3 79 32 4   98.50     LegendNANA
10:00 11.0 5.3 68 35 4   98.51     LegendNANA
11:00 12.9 4.8 58 4 6   98.46     LegendNANA
12:00 14.0 3.2 48 24 6   98.43     LegendNANA
13:00 14.8 3.8 48 21 9   98.35     LegendNANA
14:00 15.9 3.9 45 22 9   98.30     LegendNANA
15:00 16.2 3.4 42 19 13   98.24     LegendNANA
16:00 16.0 3.9 44 17 17   98.18     LegendNANA
17:00 15.2 4.7 49 17 17   98.11     LegendNANA
18:00 13.5 5.5 58 15 13   98.04     LegendNANA
19:00 11.7 5.4 65 14 13   98.00     LegendNANA
20:00 10.4 5.1 70 14 15   97.94     LegendNANA
21:00 10.1 4.9 70 14 15   97.88     LegendNANA
22:00 10.3 4.8 69 14 17   97.82     LegendNANA
23:00 10.5 4.7 67 15 20   97.72     LegendNANA

Notes on Data Quality.

Legend

  • E = Estimated
  • M = Missing
  • NA = Not Available
  • ‡ = Partner data that is not subject to review by the National Climate Archives
Date modified: